Wind_Speed
45 44 44 44 43 43 43 44 43 43 43 43 42 42 42 42 42 42 42 42 42 42 42 42 42 43 43 43 43 44 44 44 43 43 43 43 43 42
45 45 46 46 46 46 45 45 45 45 45 45 44 44 44 44 45 45 45 45 44 44 45 44 44 44 44 45 45 45 46 46 45 45 44 44 44 44
45 46 47 47 46 46 46 46 47 47 47 48 47 47 46 46 47 47 47 47 46 46 47 47 46 46 46 46 47 48 48 47 47 47 46 46 46 45
47 47 47 48 48 48 48 49 49 50 50 50 49 49 49 49 49 49 49 49 49 49 48 48 48 48 48 49 49 49 49 48 49 48 48 47 47 47
47 47 48 50 50 50 50 51 51 51 51 52 52 52 51 51 51 51 51 52 51 51 50 50 50 50 51 51 51 51 51 50 50 49 48 48 48 48
49 49 50 51 52 52 53 53 52 52 52 54 54 54 54 53 54 53 53 53 52 52 52 52 52 52 52 52 52 52 51 51 51 50 50 50 49 49
51 51 51 52 53 54 54 53 53 53 54 55 55 56 56 56 55 54 54 54 54 54 54 54 54 54 54 53 53 52 52 52 52 51 51 51 51 50
52 52 52 53 54 55 55 55 54 54 55 55 55 55 55 56 56 55 55 55 55 55 55 55 55 54 54 53 53 53 53 53 53 52 52 52 52 51
53 53 53 54 55 56 56 56 56 55 55 56 56 56 57 56 57 57 56 56 55 55 56 55 54 54 54 54 54 54 54 54 53 53 53 53 52 51
54 55 55 55 55 56 57 57 57 56 56 57 57 57 57 57 57 57 56 56 56 56 56 56 55 55 55 55 54 54 54 53 52 52 52 51 50 50
54 55 55 55 55 56 57 57 57 56 56 56 56 57 57 57 57 57 57 57 56 56 57 57 56 56 55 54 53 53 53 52 52 52 51 50 50 49
54 54 54 55 55 56 56 57 57 56 56 56 56 56 57 57 57 57 58 57 57 56 56 55 55 55 54 53 53 52 52 51 51 51 50 49 49 48
53 53 53 54 54 55 55 56 56 56 56 56 56 56 55 55 55 56 56 56 56 55 54 54 54 54 54 53 52 53 52 51 50 50 49 49 48 47
52 51 52 52 53 53 54 54 53 54 55 55 55 54 53 53 53 54 54 55 55 55 54 54 54 53 53 52 51 51 51 51 50 49 48 48 48 47
51 51 51 51 51 51 51 52 52 53 54 54 53 53 53 53 53 53 53 53 53 53 53 54 53 53 52 52 51 51 50 49 49 48 47 47 47 46
51 50 50 50 50 50 50 51 51 51 52 53 53 52 52 52 52 52 52 52 52 52 52 53 52 52 52 51 51 50 49 48 48 48 47 46 46 45
50 50 50 49 48 49 49 50 50 50 51 51 51 51 51 51 50 50 50 51 51 51 51 51 51 50 50 50 49 49 48 47 47 47 47 46 46 45
48 48 47 47 48 48 48 49 49 50 50 50 50 50 49 48 48 49 49 49 49 48 48 49 49 48 48 47 48 48 47 46 46 46 46 44 43 43
45 45 45 46 47 47 48 48 48 48 49 48 48 47 48 47 47 47 47 47 47 46 47 47 47 46 46 46 46 47 46 45 44 43 42 41 40 40
45 44 44 45 45 46 47 47 47 47 47 46 46 45 45 45 45 45 45 45 45 45 45 45 45 45 44 44 44 44 43 42 41 40 40 39 38 38
43 43 43 44 45 45 46 46 46 45 44 44 44 44 44 44 44 44 44 44 44 44 43 43 43 43 43 43 42 41 40 39 38 38 37 37 36 35
42 42 42 43 44 44 44 45 45 44 43 43 42 43 43 43 44 44 43 43 43 42 41 41 41 42 42 41 39 37 36 35 35 35 34 34 34 33
41 41 41 42 41 41 42 42 42 42 43 42 42 42 42 42 42 42 42 41 41 40 39 39 39 39 39 37 36 34 33 32 32 31 31 31 31 30
Wind_Direction
260 260 260 259 261 262 262 264 266 266 266 268 269 270 271 273 274 275 276 277 277 278 279 279 280 280 279 280 281 283 284 285 284 283 282 282 282 281
261 260 260 260 261 263 265 266 267 267 267 268 270 270 271 273 273 274 275 276 276 277 278 279 279 280 279 279 280 282 282 283 283 282 281 280 280 280
261 261 261 260 261 261 263 265 267 268 268 269 269 271 271 272 273 274 276 276 277 277 277 278 278 279 280 280 280 281 281 281 282 281 280 280 279 279
262 261 261 260 260 262 263 265 267 268 269 269 269 271 272 272 273 274 275 275 276 276 276 277 278 279 280 280 280 280 281 281 281 281 280 279 279 279
263 262 262 260 262 263 265 266 267 269 270 270 270 270 271 272 272 273 274 275 276 276 276 277 278 278 279 279 280 280 280 281 281 281 279 278 278 278
265 264 263 263 264 266 267 268 268 270 271 271 271 270 271 272 272 272 273 274 275 275 276 276 277 278 278 279 280 280 280 280 281 280 278 278 278 279
264 265 265 264 265 267 267 268 269 269 270 271 271 271 270 271 271 272 272 273 274 275 276 276 277 277 278 279 279 279 279 280 280 280 279 278 278 278
266 266 266 266 267 268 268 269 270 270 270 271 271 271 271 271 271 271 272 272 274 275 276 276 276 277 278 279 279 279 279 279 279 280 279 278 278 278
268 267 268 268 269 269 270 270 271 271 271 270 271 272 271 271 272 272 272 273 274 275 275 275 276 277 277 278 278 278 279 279 279 279 279 279 279 279
268 268 269 269 270 270 270 271 271 271 271 271 271 272 272 272 272 273 273 274 274 274 274 275 275 276 276 277 278 278 279 279 279 279 279 279 278 278
270 270 270 270 271 271 271 271 271 271 270 271 271 271 272 272 272 273 273 273 273 274 274 274 275 275 275 276 277 278 278 278 279 279 279 278 278 278
271 271 271 270 270 270 271 271 271 270 270 270 271 271 272 272 273 273 273 274 273 273 273 274 274 274 275 275 276 277 278 278 279 279 279 279 279 277
273 271 270 270 270 270 270 270 270 270 270 271 271 272 272 273 273 273 273 274 274 273 273 273 274 275 276 276 276 277 278 279 279 279 279 279 278 277
272 271 270 270 270 270 270 270 270 270 270 271 271 272 273 273 274 274 274 274 274 274 274 274 275 276 276 276 277 277 278 279 279 278 277 278 278 277
272 271 270 270 270 269 269 269 269 270 270 271 272 272 272 273 274 274 274 273 274 275 276 276 276 276 276 276 277 277 277 277 277 276 276 277 277 276
271 271 270 270 269 269 268 269 270 270 272 272 272 272 272 273 274 274 273 273 274 275 276 277 277 277 276 276 276 276 276 276 276 276 276 276 275 274
270 270 270 269 268 268 268 269 270 271 271 272 273 273 273 273 273 274 274 274 274 274 275 276 276 276 276 275 275 275 275 275 276 276 275 275 275 274
270 269 268 267 267 268 269 270 270 271 272 272 273 273 272 273 273 273 273 273 274 274 274 274 275 275 275 274 275 275 276 276 275 276 276 275 274 273
269 268 268 268 268 269 270 270 271 271 271 272 272 272 272 271 271 272 273 273 273 273 273 273 274 275 274 273 273 274 275 275 274 274 274 274 273 273
269 268 268 269 269 270 270 271 271 271 271 272 271 271 271 270 270 271 272 272 273 273 273 273 273 274 274 273 273 273 273 273 272 272 273 272 273 274
269 269 270 270 271 271 271 271 271 271 271 271 270 269 269 269 270 271 271 272 272 271 271 272 273 273 274 273 272 271 271 270 270 272 273 273 273 274
270 271 272 273 273 273 272 271 271 271 270 270 270 269 269 270 270 270 270 270 270 270 271 271 272 272 272 272 271 270 269 269 270 273 273 274 273 273
273 273 274 274 274 274 273 273 272 271 270 269 269 270 269 269 270 270 270 269 268 269 269 270 270 270 270 270 269 268 268 268 270 271 272 272 273 273
Height
5722 5723 5725 5726 5727 5728 5730 5731 5732 5732 5733 5733 5732 5732 5731 5731 5731 5730 5729 5729 5728 5727 5726 5725 5724 5722 5721 5720 5718 5717 5715 5713 5711 5709 5707 5705 5704 5703
5711 5713 5714 5715 5716 5718 5718 5719 5720 5721 5722 5722 5721 5721 5720 5720 5720 5719 5718 5718 5717 5716 5715 5714 5713 5711 5710 5708 5707 5705 5703 5701 5699 5697 5695 5694 5692 5691
5699 5701 5702 5704 5705 5706 5707 5708 5708 5709 5710 5711 5710 5709 5708 5708 5707 5707 5706 5706 5705 5704 5703 5702 5700 5699 5697 5695 5694 5692 5690 5688 5686 5684 5683 5681 5680 5679
5687 5689 5690 5692 5693 5694 5695 5695 5696 5696 5697 5698 5698 5697 5697 5696 5695 5694 5694 5693 5692 5691 5690 5689 5687 5686 5684 5682 5680 5678 5677 5675 5673 5672 5670 5669 5668 5666
5675 5676 5678 5679 5680 5681 5682 5682 5683 5683 5683 5684 5684 5684 5683 5682 5681 5681 5680 5679 5678 5677 5676 5675 5673 5672 5670 5668 5666 5664 5662 5661 5660 5658 5657 5655 5654 5653
5662 5663 5665 5666 5667 5668 5668 5668 5669 5669 5669 5669 5670 5670 5669 5668 5667 5666 5666 5665 5664 5663 5662 5660 5659 5657 5656 5654 5652 5650 5648 5647 5645 5644 5643 5642 5641 5639
5649 5650 5651 5651 5652 5653 5654 5654 5654 5654 5654 5654 5654 5654 5654 5653 5652 5651 5651 5650 5649 5648 5647 5646 5644 5643 5641 5639 5637 5636 5634 5633 5631 5629 5628 5627 5626 5625
5634 5635 5636 5637 5637 5638 5638 5639 5639 5639 5639 5638 5638 5638 5638 5638 5637 5636 5635 5634 5635 5634 5632 5630 5628 5627 5625 5624 5622 5620 5619 5617 5616 5614 5613 5611 5610 5609
5619 5620 5621 5621 5622 5622 5622 5623 5623 5622 5622 5622 5622 5622 5622 5622 5621 5620 5619 5618 5618 5617 5615 5615 5613 5611 5610 5608 5606 5604 5603 5602 5600 5599 5597 5596 5595 5593
5604 5604 5605 5605 5605 5605 5606 5606 5606 5606 5606 5605 5606 5606 5605 5604 5603 5603 5602 5601 5601 5600 5599 5599 5597 5596 5594 5592 5590 5588 5587 5585 5584 5583 5582 5581 5579 5578
5588 5588 5588 5589 5589 5589 5589 5590 5590 5590 5589 5589 5589 5589 5588 5588 5586 5585 5585 5584 5585 5585 5583 5582 5581 5580 5579 5577 5575 5573 5571 5570 5569 5568 5567 5565 5564 5563
5572 5572 5572 5572 5572 5571 5571 5572 5573 5573 5573 5573 5573 5572 5572 5571 5570 5568 5568 5567 5567 5568 5567 5566 5565 5563 5564 5563 5560 5558 5556 5555 5554 5553 5551 5550 5549 5548
5556 5556 5556 5556 5556 5555 5555 5556 5556 5556 5556 5556 5556 5556 5556 5555 5554 5553 5552 5551 5551 5551 5551 5549 5549 5547 5547 5548 5547 5544 5542 5540 5539 5538 5537 5535 5534 5533
5541 5541 5540 5540 5540 5540 5540 5540 5540 5539 5539 5540 5540 5540 5540 5539 5538 5538 5537 5536 5535 5535 5534 5533 5533 5532 5531 5531 5531 5529 5527 5526 5524 5523 5522 5521 5520 5519
5524 5525 5525 5524 5524 5524 5524 5524 5523 5523 5523 5524 5524 5524 5524 5523 5522 5522 5521 5520 5520 5519 5517 5517 5516 5516 5515 5515 5515 5514 5513 5512 5510 5509 5508 5507 5507 5506
5508 5509 5509 5508 5508 5508 5508 5508 5508 5508 5508 5508 5508 5508 5508 5507 5507 5506 5505 5505 5504 5504 5502 5501 5500 5500 5500 5499 5499 5498 5497 5497 5496 5494 5494 5494 5493 5492
5493 5493 5493 5493 5493 5493 5493 5493 5493 5493 5493 5492 5492 5493 5492 5492 5491 5491 5490 5489 5489 5489 5488 5486 5485 5484 5484 5484 5484 5483 5483 5482 5481 5480 5479 5480 5479 5478
5477 5478 5478 5478 5478 5479 5479 5479 5478 5478 5478 5477 5477 5477 5477 5477 5476 5476 5475 5475 5474 5474 5473 5472 5471 5470 5470 5470 5470 5469 5469 5468 5467 5466 5465 5465 5465 5465
5463 5463 5463 5464 5464 5464 5464 5464 5464 5464 5463 5463 5463 5462 5462 5462 5461 5461 5461 5460 5460 5460 5459 5458 5457 5456 5456 5457 5457 5455 5455 5454 5453 5453 5452 5452 5452 5452
5449 5450 5450 5450 5450 5450 5450 5449 5449 5449 5449 5449 5448 5448 5448 5448 5447 5447 5447 5446 5446 5446 5445 5445 5444 5443 5442 5443 5443 5443 5441 5440 5440 5440 5440 5440 5440 5440
5437 5437 5437 5437 5436 5436 5436 5435 5435 5435 5435 5434 5434 5434 5434 5434 5434 5434 5433 5433 5432 5432 5432 5432 5431 5431 5430 5429 5430 5431 5430 5429 5428 5428 5428 5428 5428 5429
5425 5424 5424 5423 5423 5422 5422 5421 5421 5421 5421 5421 5421 5421 5421 5420 5420 5420 5420 5420 5420 5419 5419 5419 5419 5418 5418 5418 5418 5418 5418 5418 5417 5417 5417 5417 5417 5418
5412 5411 5411 5410 5410 5409 5409 5408 5408 5408 5408 5408 5408 5408 5407 5407 5407 5407 5407 5407 5407 5407 5407 5407 5407 5407 5406 5406 5407 5407 5408 5408 5408 5408 5408 5407 5407 5408